User: anonymous   Login
Location: Unspecified
(0.0000°N, 0.0000°E)
Time: 10:23:31
(UTC+00:00)
Language:

XW-2B - Orbit

View from above orbital plane
View from above orbital plane
View from above satellite
View from above satellite

Ground track
Ground track

The orbit data is extracted from the following two-line orbital elements,

1 40911U 15049N   20194.83560278  .00000180  00000-0  12749-4 0  9995
2 40911  97.4757 196.2172 0012425 286.9873 193.9202 15.16261425266015
Epoch (UTC): 12 July 2020 20:03:16
Eccentricity: 0.0012425
inclination: 97.4757°
perigee height: 508 km
apogee height: 526 km
right ascension of ascending node: 196.2172°
argument of perigee: 286.9873°
revolutions per day: 15.16261425
mean anomaly at epoch: 193.9202°
orbit number at epoch: 26601

The dashed part of the orbit path shows where the satellite is in the earth's shadow,  

DLR